Eagle, CO

5:00 PM MST on January 20, 2018 (GMT -0700)
Eagle County Regional

Weather History for KEGE - October, 2011

Change the Weather History Date:

Wednesday, October 12, 2011

  Actual Average Record
Temperature  
Mean Temperature 48 °F -  
Max Temperature 62 °F 63 °F 81 °F (1950)
Min Temperature 33 °F 28 °F 11 °F (1982)
Degree Days  
Heating Degree Days 18    
Moisture  
Dew Point 30 °F    
Average Humidity 67    
Maximum Humidity 100    
Minimum Humidity 16    
Precipitation  
Precipitation 0.00 in - - ()
Sea Level Pressure  
Sea Level Pressure 30.23 in    
Wind  
Wind Speed 4 mph (SE)    
Max Wind Speed 14 mph    
Max Gust Speed 18 mph    
Visibility 10 miles    
Events      
Averages and records for this station are not official NWS values.
T = Trace of Precipitation, MM = Missing Value Source: NWS Daily Summary

Daily Weather History Graph

Daily Weather History Graph

Search for Another Location

Airport or City:

Trip Planner

Search our weather history database for the weather conditions in past years. The results will help you decide how hot, cold, wet, or windy it might be!

Date:

Astronomy

Oct. 12, 2011 Rise Set
Actual Time 7:14 AM MDT 6:33 PM MDT
Civil Twilight 6:47 AM MDT 7:00 PM MDT
Nautical Twilight 6:16 AM MDT 7:31 PM MDT
Astronomical Twilight 5:45 AM MDT 8:02 PM MDT
Moon 6:37 PM MDT (10/12) 7:51 AM MDT (10/12)
Length of Visible Light 12h 12m
Length of Day
11h 18m
Full, 100% of the Moon is Illuminated
Oct 12
Full
Oct 19
Last Quarter
Oct 26
New
Nov 2
First Quarter
Nov 10
Full

Hourly Weather History & Observations

Time (MDT) Temp. Windchill Dew Point Humidity Pressure Visibility Wind Dir Wind Speed Gust Speed Precip Events Conditions
12:15 AM 44.6 °F 42.2 °F 37.4 °F 76% 30.14 in 10.0 mi West 4.6 mph - N/A   Overcast
12:35 AM 44.6 °F 42.2 °F 37.4 °F 76% 30.14 in 10.0 mi WNW 4.6 mph - N/A   Mostly Cloudy
12:55 AM 44.6 °F 42.2 °F 35.6 °F 71% 30.14 in 10.0 mi North 4.6 mph - N/A   Mostly Cloudy
1:15 AM 41.0 °F 39.0 °F 37.4 °F 87% 30.15 in 10.0 mi ENE 3.5 mph - N/A   Overcast
1:35 AM 39.2 °F 37.0 °F 37.4 °F 93% 30.17 in 10.0 mi East 3.5 mph - N/A   Overcast
1:55 AM 41.0 °F - 37.4 °F 87% 30.17 in 10.0 mi Calm Calm - N/A   Mostly Cloudy
2:15 AM 39.2 °F 37.0 °F 37.4 °F 93% 30.18 in 10.0 mi East 3.5 mph - N/A   Mostly Cloudy
2:35 AM 39.2 °F - 37.4 °F 93% 30.19 in 10.0 mi Calm Calm - N/A   Overcast
2:55 AM 39.2 °F 33.6 °F 35.6 °F 87% 30.19 in 10.0 mi East 8.1 mph - N/A   Mostly Cloudy
3:15 AM 37.4 °F 32.1 °F 35.6 °F 93% 30.19 in 10.0 mi East 6.9 mph - N/A   Partly Cloudy
3:35 AM 39.2 °F 35.9 °F 35.6 °F 87% 30.19 in 10.0 mi ESE 4.6 mph - N/A   Clear
3:55 AM 37.4 °F 33.8 °F 35.6 °F 93% 30.19 in 10.0 mi East 4.6 mph - N/A   Clear
4:15 AM 35.6 °F - 33.8 °F 93% 30.20 in 10.0 mi Calm Calm - N/A   Clear
4:35 AM 37.4 °F 34.9 °F 33.8 °F 87% 30.21 in 10.0 mi NE 3.5 mph - N/A   Clear
4:55 AM 35.6 °F 32.8 °F 33.8 °F 93% 30.21 in 10.0 mi SSE 3.5 mph - N/A   Clear
5:15 AM 35.6 °F 32.8 °F 33.8 °F 93% 30.22 in 10.0 mi East 3.5 mph - N/A   Clear
5:35 AM 33.8 °F - 33.8 °F 100% 30.23 in 10.0 mi Calm Calm - N/A   Clear
5:55 AM 33.8 °F - 33.8 °F 100% 30.24 in 10.0 mi Calm Calm - N/A   Clear
6:15 AM 33.8 °F - 32.0 °F 93% 30.25 in 10.0 mi Calm Calm - N/A   Clear
6:35 AM 33.8 °F - 32.0 °F 93% 30.26 in 10.0 mi Calm Calm - N/A   Clear
6:50 AM 33.8 °F - 30.2 °F 87% 30.26 in 20.0 mi Calm Calm - N/A   Scattered Clouds
6:55 AM 33.8 °F - 30.2 °F 87% 30.26 in 10.0 mi Calm Calm - N/A   Clear
7:50 AM 33.8 °F 30.8 °F 32.0 °F 93% 30.28 in 10.0 mi Variable 3.5 mph - N/A   Scattered Clouds
9:50 AM 46.4 °F - 33.8 °F 62% 30.30 in 10.0 mi Calm Calm - N/A   Partly Cloudy
10:50 AM 51.8 °F - 30.2 °F 44% 30.29 in 10.0 mi Calm Calm - N/A   Partly Cloudy
11:50 AM 55.4 °F - 26.6 °F 33% 30.27 in 10.0 mi WSW 11.5 mph 16.1 mph N/A   Partly Cloudy
12:50 PM 57.2 °F - 24.8 °F 29% 30.25 in 10.0 mi West 9.2 mph - N/A   Partly Cloudy
1:50 PM 60.8 °F - 21.2 °F 22% 30.23 in 10.0 mi West 9.2 mph - N/A   Partly Cloudy
2:50 PM 62.6 °F - 17.6 °F 18% 30.22 in 10.0 mi WSW 12.7 mph - N/A   Clear
3:50 PM 62.6 °F - 17.6 °F 18% 30.22 in 10.0 mi SW 13.8 mph - N/A   Clear
4:50 PM 62.6 °F - 15.8 °F 16% 30.23 in 10.0 mi WSW 12.7 mph 18.4 mph N/A   Clear
5:50 PM 60.8 °F - 21.2 °F 22% 30.24 in 10.0 mi West 8.1 mph - N/A   Clear
6:50 PM 55.4 °F - 21.2 °F 26% 30.25 in 10.0 mi SW 3.5 mph - N/A   Clear
8:15 PM 48.2 °F - 21.2 °F 34% 30.27 in 10.0 mi East 4.6 mph - N/A   Clear
8:35 PM 46.4 °F 43.5 °F 23.0 °F 40% 30.28 in 10.0 mi ESE 5.8 mph - N/A   Clear
8:55 PM 44.6 °F 42.2 °F 23.0 °F 43% 30.28 in 10.0 mi ESE 4.6 mph - N/A   Clear
9:35 PM 42.8 °F 40.1 °F 24.8 °F 49% 30.29 in 10.0 mi SE 4.6 mph - N/A   Clear
10:15 PM 41.0 °F 38.0 °F 23.0 °F 49% 30.31 in 10.0 mi SE 4.6 mph - N/A   Clear
10:35 PM 39.2 °F - 24.8 °F 56% 30.32 in 10.0 mi Calm Calm - N/A   Clear
11:15 PM 37.4 °F - 24.8 °F 60% 30.32 in 10.0 mi Calm Calm - N/A   Clear
11:35 PM 37.4 °F 33.8 °F 24.8 °F 60% 30.32 in 10.0 mi SE 4.6 mph - N/A   Clear